Date,TemperatureHighF,TemperatureAvgF,TemperatureLowF,DewpointHighF,DewpointAvgF,DewpointLowF,HumidityHigh,HumidityAvg,HumidityLow,PressureMaxIn,PressureMinIn,WindSpeedMaxMPH,WindSpeedAvgMPH,GustSpeedMaxMPH,PrecipitationSumIn
2012-1-1,67,50,35,56,41,28,86,72,48,30.12,29.91,18,4,18,0.00
2012-1-2,50,40,27,28,17,8,51,40,21,30.13,29.92,17,5,17,0.00
2012-1-3,35,27,20,11,8,5,57,45,32,30.30,30.12,16,4,16,0.00
2012-1-4,48,32,18,20,13,7,69,48,26,30.32,30.07,11,3,11,0.00
2012-1-5,61,43,30,33,24,16,76,49,21,30.14,30.04,9,2,9,0.00
2012-1-6,66,48,31,38,30,23,80,52,29,30.09,29.97,11,3,11,0.00
2012-1-7,73,57,46,53,44,28,85,63,46,30.08,29.96,15,6,15,0.00
2012-1-8,58,52,48,54,49,45,92,88,84,30.22,30.07,5,1,5,0.05
2012-1-9,52,49,47,47,45,43,92,86,82,30.20,30.05,10,2,10,0.00
2012-1-10,63,53,48,56,50,46,94,88,74,30.11,29.96,5,1,5,0.02
2012-1-11,62,54,50,60,51,45,95,89,72,29.96,29.49,20,5,20,0.44
2012-1-12,59,50,36,48,43,23,92,77,58,29.72,29.55,33,9,33,0.00
2012-1-13,42,34,27,23,20,15,68,56,44,30.08,29.72,21,8,21,0.00
2012-1-14,39,35,29,23,21,19,66,59,52,30.08,30.07,12,4,12,0.00
2012-1-15,51,40,30,28,24,20,75,55,33,30.48,30.08,10,2,10,0.00
2012-1-16,51,38,29,37,29,20,83,73,57,30.54,30.32,11,2,11,0.00
2012-1-17,60,48,36,53,44,30,95,84,72,30.32,29.90,17,5,17,0.65
2012-1-18,54,46,37,53,35,26,95,67,43,30.09,29.90,10,2,10,0.09
2012-1-19,49,38,29,33,27,22,78,66,52,30.20,30.07,9,2,9,0.00
2012-1-20,54,43,31,43,36,25,93,76,54,30.12,30.05,8,2,8,0.38
2012-1-21,55,48,43,53,46,41,95,94,93,30.08,29.86,9,2,9,0.66
2012-1-22,51,44,38,50,42,36,95,91,83,30.30,30.08,13,2,13,0.00
2012-1-23,46,40,37,44,38,35,95,94,91,30.25,30.01,8,2,8,0.29
2012-1-24,62,50,42,56,47,39,96,89,67,30.23,30.01,7,2,7,0.00
2012-1-25,64,50,37,47,41,34,94,74,47,30.32,30.17,7,2,7,0.02
2012-1-26,65,56,49,59,51,43,93,84,76,30.18,29.70,14,2,14,0.18
2012-1-27,64,57,38,60,46,31,93,70,32,30.03,29.64,20,6,20,0.01
2012-1-28,64,46,32,43,34,23,93,66,41,30.23,30.02,10,2,10,0.00
2012-1-29,55,40,26,28,20,16,79,48,22,30.38,30.23,13,2,13,0.00
2012-1-30,62,46,29,33,23,16,66,42,24,30.42,30.29,11,3,11,0.00
2012-1-31,67,51,37,33,27,21,54,41,24,30.38,30.26,15,4,15,0.00
2012-2-1,68,54,43,51,42,31,88,65,49,30.27,30.07,12,4,12,0.02
2012-2-2,69,57,44,55,44,33,93,66,30,30.31,30.00,10,4,10,0.01
2012-2-3,63,49,36,38,33,28,76,56,33,30.45,30.30,6,2,6,0.00
2012-2-4,56,48,44,50,42,33,88,79,62,30.35,30.02,7,1,7,0.03
2012-2-5,74,56,45,60,50,40,95,84,53,30.20,29.96,8,3,8,0.27
2012-2-6,51,43,35,40,36,31,87,77,64,30.26,30.13,8,2,8,0.00
2012-2-7,62,44,32,45,36,30,93,74,45,30.18,30.10,6,1,6,0.01
2012-2-8,58,48,37,39,34,28,86,60,40,30.17,30.08,8,2,8,0.00
2012-2-9,52,40,30,37,30,25,83,68,50,30.28,30.16,8,1,8,0.00
2012-2-10,53,40,31,43,34,27,87,78,67,30.18,29.86,8,2,8,0.00
2012-2-11,47,38,24,39,22,6,85,56,31,30.15,29.78,18,6,18,0.00
2012-2-12,45,35,19,18,12,5,59,40,29,30.29,30.15,12,3,12,0.00
2012-2-13,54,32,20,26,17,11,76,55,32,30.27,30.08,8,1,8,0.00
2012-2-14,53,44,38,39,33,20,85,65,45,30.10,30.01,10,4,10,0.00
2012-2-15,67,43,32,45,35,29,94,78,33,30.25,30.09,7,2,7,0.00
2012-2-16,59,51,46,55,45,34,92,79,58,30.22,30.01,5,1,5,0.08
2012-2-17,65,52,42,52,45,40,95,78,56,30.14,30.04,9,2,9,0.02
2012-2-18,70,54,42,49,42,37,86,66,46,30.12,29.93,8,2,8,0.00
2012-2-19,52,45,36,47,42,33,94,88,72,29.97,29.74,9,2,9,0.37
2012-2-20,54,41,30,40,30,26,95,71,34,30.30,29.96,7,1,7,0.00
2012-2-21,59,43,30,42,34,24,87,71,49,30.29,30.00,14,3,14,0.00
2012-2-22,69,55,41,55,46,38,94,75,47,30.01,29.62,26,6,26,0.02
2012-2-23,76,63,51,62,54,48,94,75,49,29.72,29.60,22,6,22,0.00
2012-2-24,76,64,44,65,52,22,86,67,31,29.99,29.57,21,8,21,0.00
2012-2-25,56,46,35,26,21,16,60,40,22,30.28,29.99,17,5,17,0.01
2012-2-26,41,33,28,28,23,18,70,66,55,30.47,30.40,6,1,6,0.00
2012-2-27,64,55,46,52,47,42,89,75,65,30.37,30.30,10,2,10,0.00
2012-2-28,72,56,41,52,46,39,95,72,45,30.41,30.26,10,2,10,0.01
2012-2-29,66,60,53,61,55,48,91,85,69,30.26,29.86,16,4,16,0.02
2012-3-1,79,68,58,62,50,31,92,58,19,29.89,29.80,17,7,17,0.00
2012-3-2,66,55,49,55,48,40,89,76,51,29.94,29.69,8,2,8,0.12
2012-3-3,63,56,51,58,44,24,94,68,31,29.80,29.62,18,3,18,1.54
2012-3-4,54,48,42,35,25,18,58,41,29,29.98,29.69,18,4,18,0.00
2012-3-5,54,43,33,31,23,16,68,47,27,30.45,29.90,14,5,14,0.00
2012-3-6,60,42,27,32,24,16,79,50,28,30.61,30.45,10,2,10,0.00
2012-3-7,71,52,37,52,39,22,78,62,48,30.58,30.40,11,2,11,0.00
2012-3-8,75,61,49,60,51,43,86,71,49,30.41,30.09,12,4,12,0.00
2012-3-9,64,57,43,56,45,29,92,67,33,30.30,30.08,9,2,9,0.42
2012-3-10,63,48,35,31,26,19,75,47,21,30.47,30.30,9,2,9,0.00
2012-3-11,68,50,34,42,33,20,79,56,31,30.55,30.30,8,2,8,0.00
2012-3-12,75,60,43,56,48,36,82,64,48,30.41,30.25,10,3,10,0.00
2012-3-13,78,67,43,63,57,29,88,71,57,30.30,30.12,9,3,9,0.07
2012-3-14,84,69,57,62,55,47,93,67,33,30.25,30.16,8,2,8,0.00
2012-3-15,87,68,52,60,52,46,86,60,32,30.27,30.16,8,2,8,0.02
2012-3-16,85,67,55,62,56,50,87,69,38,30.24,30.10,12,2,12,0.02
2012-3-17,83,68,43,63,56,29,92,70,43,30.30,30.14,8,1,8,0.09
2012-3-18,79,65,56,66,57,53,93,77,47,30.33,30.19,5,1,5,0.33
2012-3-19,86,69,55,67,57,52,91,68,34,30.22,30.09,7,1,7,0.00
2012-3-20,88,70,57,68,59,52,87,68,43,30.22,30.11,11,2,11,0.12
2012-3-21,82,70,58,66,58,54,89,68,49,30.29,30.17,9,2,9,0.00
2012-3-22,83,67,43,68,61,29,91,81,57,30.30,30.15,7,1,7,0.00
2012-3-23,83,67,58,71,61,56,93,82,56,30.16,29.97,11,2,11,0.09
2012-3-24,80,67,43,69,57,20,93,73,39,30.30,29.73,14,4,14,0.11
2012-3-25,65,57,43,55,50,31,86,77,63,30.30,29.73,7,1,7,0.14
2012-3-26,83,64,48,54,48,44,92,61,28,30.06,29.85,8,2,8,0.00
2012-3-27,72,59,47,46,40,32,69,50,32,30.31,30.06,8,2,8,0.00
2012-3-28,81,64,47,63,51,36,85,64,47,30.22,29.91,18,4,18,0.00
2012-3-29,86,72,61,59,54,50,73,54,31,29.96,29.87,12,4,12,0.00
2012-3-30,84,66,56,61,54,45,90,68,41,30.02,29.86,13,2,13,0.24
2012-3-31,81,68,58,66,59,52,93,76,42,29.91,29.75,10,2,10,0.16
2012-4-1,85,67,55,61,55,50,87,69,37,29.90,29.76,11,2,11,0.12
2012-4-2,89,71,54,68,59,50,91,69,39,29.90,29.71,8,2,8,0.01
2012-4-3,80,69,60,67,61,56,90,78,61,30.02,29.90,10,2,10,0.00
2012-4-4,88,69,56,69,61,54,93,78,42,29.93,29.68,13,2,13,0.17
2012-4-5,83,65,52,66,59,50,92,82,55,29.81,29.60,19,2,19,1.04
2012-4-6,66,54,47,50,46,41,94,75,42,30.08,29.78,10,2,10,0.33
2012-4-7,73,57,41,49,42,36,91,62,33,30.26,30.08,7,2,7,0.00
2012-4-8,78,63,45,55,45,39,84,55,29,30.14,29.96,10,2,10,0.00
2012-4-9,78,65,49,45,38,29,58,39,24,30.09,29.86,13,3,13,0.01
2012-4-10,77,65,48,45,40,31,61,41,28,30.00,29.82,13,4,13,0.00
2012-4-11,65,55,44,36,27,22,49,35,23,30.13,29.87,11,3,11,0.00
2012-4-12,69,49,31,36,28,22,73,47,26,30.22,30.09,8,1,8,0.00
2012-4-13,73,55,37,43,35,28,84,50,24,30.24,30.11,6,1,6,0.00
2012-4-14,78,60,42,50,43,34,80,55,35,30.32,30.17,10,2,10,0.00
2012-4-15,82,66,50,65,55,41,85,69,51,30.23,30.14,12,3,12,0.00
2012-4-16,84,71,58,65,59,54,87,69,45,30.20,30.10,16,5,16,0.00
2012-4-17,89,73,59,68,61,56,92,69,45,30.19,30.03,10,3,10,0.87
2012-4-18,61,56,53,58,53,50,93,90,84,30.16,30.06,9,2,9,0.51
2012-4-19,72,60,53,61,54,50,93,83,65,30.09,30.00,6,1,6,0.01
2012-4-20,77,64,53,64,57,51,93,80,58,30.04,29.86,8,2,8,0.00
2012-4-21,81,69,58,68,61,56,92,78,63,29.88,29.70,7,2,7,0.00
2012-4-22,68,59,45,59,52,39,90,80,62,29.71,29.50,11,2,11,0.22
2012-4-23,59,50,43,39,33,28,83,55,33,29.76,29.59,10,3,10,0.00
2012-4-24,68,53,36,41,33,27,76,50,30,29.84,29.73,10,3,10,0.09
2012-4-25,78,63,50,57,50,39,83,64,47,29.94,29.82,10,2,10,0.01
2012-4-26,70,64,60,64,58,55,92,82,69,29.91,29.77,13,5,13,0.26
2012-4-27,89,70,59,72,64,57,93,82,53,30.06,29.86,7,2,7,0.11
2012-4-28,73,64,56,62,56,50,93,76,57,30.15,30.02,6,1,6,0.00
2012-4-29,87,69,52,70,60,49,91,74,52,30.17,30.08,8,2,8,0.00
2012-4-30,90,74,60,72,64,57,93,73,52,30.18,30.05,11,3,11,0.00
2012-5-1,90,76,62,72,65,56,85,70,52,30.16,30.04,11,4,11,0.00
2012-5-2,91,77,63,72,65,59,90,69,44,30.15,30.06,10,3,10,0.00
2012-5-3,94,77,63,72,65,58,89,69,43,30.15,30.06,9,2,9,0.00
2012-5-4,87,76,67,70,64,62,86,70,48,30.09,29.93,15,3,15,0.00
2012-5-5,89,78,64,70,64,59,90,65,46,29.95,29.83,8,2,8,0.00
2012-5-6,86,73,62,68,62,57,86,70,52,30.01,29.90,8,2,8,0.00
2012-5-7,85,72,61,70,62,58,90,73,54,30.04,29.91,7,2,7,0.11
2012-5-8,85,73,66,72,65,60,88,78,55,29.96,29.80,11,4,11,0.08
2012-5-9,73,66,54,69,62,50,93,86,73,29.89,29.70,8,1,8,0.26
2012-5-10,77,64,50,61,50,45,92,64,38,29.96,29.77,10,2,10,0.01
2012-5-11,79,64,50,53,48,43,82,57,32,30.18,29.96,8,1,8,0.00
2012-5-12,81,66,53,64,55,47,89,70,51,30.30,30.17,9,2,9,0.00
2012-5-13,71,62,54,65,58,51,92,87,80,30.21,30.04,4,1,4,0.50
2012-5-14,82,71,63,72,66,60,94,84,63,30.04,29.86,11,4,11,0.63
2012-5-15,87,71,61,74,65,59,92,83,62,29.98,29.89,9,1,9,0.56
2012-5-16,88,73,60,70,64,58,92,75,48,29.97,29.85,5,1,5,0.16
2012-5-17,85,71,60,67,62,57,91,75,47,30.02,29.91,8,1,8,0.01
2012-5-18,82,69,60,65,60,57,90,75,55,30.08,29.99,9,1,9,0.00
2012-5-19,81,68,56,60,55,50,85,66,39,30.14,30.04,7,1,7,0.00
2012-5-20,84,66,55,64,54,51,90,69,38,30.11,30.00,8,1,8,0.00
2012-5-21,90,74,59,66,59,53,85,62,40,30.04,29.86,9,2,9,0.00
2012-5-22,89,71,60,70,62,55,89,75,51,29.90,29.75,9,1,9,0.35
2012-5-23,89,71,58,71,63,54,90,77,48,29.90,29.80,6,2,6,0.01
2012-5-24,93,76,60,74,65,57,90,71,46,29.99,29.88,7,2,7,0.08
2012-5-25,95,80,65,72,66,61,88,65,39,30.11,29.99,6,1,6,0.00
2012-5-26,95,80,67,72,67,63,88,67,43,30.11,30.02,8,1,8,0.00
2012-5-27,95,78,66,73,66,63,88,68,47,30.11,30.01,7,1,7,0.00
2012-5-28,92,77,66,74,68,62,89,76,48,30.06,29.94,7,1,7,0.04
2012-5-29,86,74,67,75,69,63,88,83,64,29.98,29.81,8,1,8,0.48
2012-5-30,94,76,61,72,62,56,89,65,33,29.83,29.73,10,2,10,0.02
2012-5-31,97,79,61,71,63,56,86,61,40,29.87,29.76,10,2,10,0.00
2012-6-1,84,74,64,72,65,54,88,74,54,29.82,29.67,16,4,16,0.08
2012-6-2,75,62,53,56,51,48,84,69,48,29.96,29.66,3,0,3,0.00
2012-6-3,88,71,52,63,55,46,85,59,35,30.01,29.86,9,2,9,0.00
2012-6-4,88,75,64,70,62,56,84,65,42,29.87,29.73,10,2,10,0.01
2012-6-5,85,71,60,67,60,56,86,71,50,29.89,29.74,8,2,8,0.11
2012-6-6,65,65,65,60,60,60,84,84,83,29.89,29.87,4,2,4,0.00
2012-6-7,90,73,61,68,60,56,86,66,43,30.08,29.99,7,1,7,0.00
2012-6-8,96,75,58,68,59,53,87,61,33,30.09,30.00,6,1,6,0.00
2012-6-9,93,77,60,68,61,54,85,61,39,30.11,30.01,8,2,8,0.00
2012-6-10,78,70,61,68,62,57,86,75,60,30.16,30.07,5,1,5,0.11
2012-6-11,86,70,60,76,64,56,87,82,66,30.14,30.00,8,2,8,0.67
2012-6-12,94,74,65,78,67,60,85,79,55,30.02,29.88,10,3,10,0.86
2012-6-13,94,77,62,73,66,57,84,70,48,30.01,29.93,8,1,8,0.00
2012-6-14,87,76,69,66,62,56,80,62,44,30.16,30.01,6,1,6,0.00
2012-6-15,94,74,62,66,61,56,80,64,39,30.25,30.14,7,1,7,0.00
2012-6-16,96,72,58,66,57,51,79,61,36,30.30,30.14,8,1,8,0.00
2012-6-17,93,76,62,68,60,53,77,60,43,30.20,30.02,8,2,8,0.00
2012-6-18,93,79,66,70,64,58,76,61,43,30.12,30.04,10,3,10,0.00
2012-6-19,100,81,64,71,64,57,77,59,39,30.20,30.12,9,2,9,0.00
2012-6-20,104,83,66,75,67,58,77,60,40,30.20,30.08,8,1,8,0.00
2012-6-21,100,85,70,75,68,62,75,60,41,30.12,29.93,8,2,8,0.00
2012-6-22,100,82,70,74,68,62,76,63,38,29.99,29.88,9,2,9,0.00
2012-6-23,97,80,64,75,66,56,76,64,46,30.02,29.92,8,1,8,0.00
2012-6-24,98,81,65,76,67,56,73,63,47,30.03,29.91,12,2,12,0.54
2012-6-25,98,81,65,76,66,54,69,62,48,29.96,29.74,8,2,8,0.01
2012-6-26,92,77,65,63,56,50,66,51,30,29.91,29.77,12,2,12,0.00
2012-6-27,101,74,57,64,54,46,69,51,30,30.03,29.91,7,1,7,0.00
2012-6-28,103,81,61,69,59,50,68,50,27,30.06,29.93,11,2,11,0.00
2012-6-29,111,89,68,74,64,56,65,47,26,29.94,29.83,6,1,6,0.00
2012-6-30,112,90,75,76,68,61,63,50,31,29.95,29.86,7,2,7,0.00
2012-7-1,111,88,70,76,66,55,63,50,26,30.08,29.88,13,2,13,0.00
2012-7-2,98,81,63,73,63,49,62,55,41,30.22,29.98,10,2,10,0.35
2012-7-3,103,84,67,76,64,50,59,53,38,30.06,29.96,10,2,10,0.00
2012-7-4,102,86,69,76,66,52,59,51,40,30.04,29.96,6,1,6,0.00
2012-7-5,107,83,69,74,62,49,56,50,30,30.01,29.92,11,2,11,0.00
2012-7-6,98,85,72,71,63,54,56,49,38,30.01,29.95,5,1,5,0.00
2012-7-7,100,85,70,76,64,50,54,50,42,30.06,29.96,8,2,8,0.00
2012-7-8,105,88,75,76,66,54,54,49,39,30.03,29.88,10,3,10,0.00
2012-7-9,103,86,73,78,64,51,52,48,38,29.98,29.89,10,2,10,0.20
2012-7-10,93,76,67,71,50,38,50,41,34,30.06,29.95,9,1,9,2.01
2012-7-11,92,73,66,65,32,8,43,24,1,30.15,30.02,8,1,8,2.88
2012-7-12,82,71,64,20,12,6,6,1,1,30.18,30.11,8,2,8,0.40
2012-7-13,93,74,66,34,14,8,13,1,1,30.20,30.11,7,1,7,0.03
2012-7-14,100,81,68,74,27,10,44,10,1,30.24,30.11,8,2,8,0.02
2012-7-15,97,80,67,70,25,9,42,8,1,30.23,30.12,9,2,9,0.00
2012-7-16,99,79,67,73,28,9,46,12,1,30.14,29.97,15,1,15,0.00
2012-7-17,98,81,66,71,30,8,45,13,1,30.03,29.93,8,2,8,0.01
2012-7-18,98,81,67,72,28,9,45,11,1,30.04,29.94,11,2,11,0.00
2012-7-19,97,78,66,68,22,8,42,6,1,30.08,29.96,10,3,10,0.06
2012-7-20,92,77,70,28,16,11,1,1,1,30.02,29.92,9,2,9,0.22
2012-7-21,93,78,68,31,17,10,12,1,1,30.10,29.97,12,3,12,0.16
2012-7-22,98,83,71,73,32,12,45,13,1,30.20,30.10,13,3,13,0.00
2012-7-23,99,82,68,72,24,10,43,6,1,30.22,30.08,9,2,9,0.00
2012-7-24,100,81,70,73,28,10,43,10,1,30.09,29.92,13,2,13,1.57
2012-7-25,98,81,69,48,20,10,19,2,1,30.03,29.92,9,2,9,0.36
2012-7-26,100,86,71,73,35,11,43,13,1,29.96,29.84,10,2,10,0.03
2012-7-27,99,84,72,71,28,12,42,7,1,29.96,29.88,9,2,9,0.00
2012-8-1,97,94,91,68,58,48,39,32,23,29.91,29.88,5,2,6,0.00
2012-8-2,99,87,71,70,33,12,42,11,1,29.96,29.86,9,2,9,0.00
2012-8-3,96,81,70,52,20,10,24,2,1,30.06,29.92,13,3,13,0.00
2012-8-4,95,79,72,57,18,0,29,2,1,30.21,30.05,16,2,16,0.14
2012-8-5,97,81,71,52,20,12,24,2,1,30.25,30.12,9,2,9,0.00
2012-8-6,95,80,72,52,18,12,25,2,1,30.16,30.03,8,2,8,0.35
2012-8-7,90,78,73,26,18,14,1,1,1,30.08,29.98,8,2,8,0.18
2012-8-8,98,80,70,40,18,11,15,1,1,30.04,29.95,9,2,9,0.00
2012-8-9,95,76,69,30,16,10,1,1,1,30.04,29.88,13,2,13,0.89
2012-8-10,90,77,70,26,17,11,1,1,1,29.90,29.82,11,4,11,0.01
2012-8-11,90,78,70,26,17,10,1,1,1,29.98,29.87,12,2,12,0.27
2012-8-12,92,77,67,60,19,9,38,5,1,30.04,29.95,5,1,5,0.00
2012-8-13,92,77,66,65,25,8,43,10,1,30.07,29.97,9,2,9,0.01
2012-8-14,91,79,67,45,18,9,21,2,1,30.00,29.88,13,3,13,0.00
2012-8-15,92,78,71,54,18,-2,29,2,1,29.99,29.91,13,2,13,0.82
2012-8-16,89,76,65,63,26,7,42,12,1,30.07,29.97,6,1,6,0.01
2012-8-17,92,77,66,28,16,8,1,1,1,30.02,29.86,11,1,11,0.00
2012-8-18,88,77,69,24,16,10,1,1,1,29.96,29.86,6,1,6,0.00
2012-8-19,86,76,71,24,16,12,1,1,1,29.92,29.85,9,2,9,0.25
2012-8-20,90,74,66,44,15,8,21,1,1,30.00,29.89,9,2,9,0.06
2012-8-21,88,74,64,55,15,6,34,2,1,30.09,29.99,6,2,6,0.29
2012-8-22,89,74,66,27,14,8,12,1,1,30.14,30.05,6,1,6,0.07
2012-8-23,90,76,67,43,16,-11,21,2,1,30.17,30.09,7,1,7,0.00
2012-8-24,89,76,66,60,24,8,41,10,1,30.17,30.09,8,1,9,0.00
2012-8-25,90,75,64,64,23,7,44,11,1,30.19,30.09,8,1,8,0.00
2012-8-26,91,75,62,56,19,4,33,5,1,30.20,30.09,6,1,6,0.00
2012-8-27,92,77,66,62,23,8,40,8,1,30.18,30.03,7,1,7,0.00
2012-8-28,91,78,72,27,17,12,1,1,1,30.06,29.97,6,1,6,0.03
2012-8-29,87,79,73,24,18,14,1,1,1,30.04,29.96,6,1,6,0.02
2012-8-30,90,80,72,26,19,13,1,1,1,30.19,30.00,6,2,6,0.00
2012-8-31,95,82,73,54,21,-8,26,3,1,30.25,30.13,10,3,10,0.00
2012-9-1,99,82,73,69,24,14,38,5,1,30.18,30.06,6,1,6,0.00
2012-9-2,97,80,71,61,20,12,32,3,1,30.10,29.96,12,2,12,0.10
2012-9-3,91,76,72,27,16,12,1,1,1,30.04,29.95,11,2,11,0.29
2012-9-4,86,76,72,13,0,0,1,0,1,30.00,29.93,7,2,7,0.34
2012-9-5,89,78,72,0,0,0,0,0,100,29.99,29.89,10,3,10,0.00
2012-9-6,93,78,71,0,0,0,0,0,100,29.99,29.89,8,2,8,0.05
2012-9-7,90,78,70,0,0,0,0,0,100,30.01,29.88,8,1,8,0.01
2012-9-8,94,76,68,0,0,0,0,0,100,29.89,29.73,15,2,15,0.54
2012-9-9,81,70,61,0,0,0,0,0,100,30.04,29.86,9,1,9,0.00
2012-9-10,85,69,57,0,0,0,0,0,100,30.15,30.02,5,1,5,0.00
2012-9-11,84,70,61,0,0,0,0,0,100,30.31,30.15,8,1,8,0.04
2012-9-12,85,70,60,0,0,0,0,0,100,30.36,30.25,6,1,6,0.00
2012-9-13,83,68,58,0,0,0,0,0,100,30.36,30.25,7,1,7,0.00
2012-9-14,86,70,62,0,0,0,0,0,100,30.27,30.17,5,1,5,0.00
2012-9-15,89,73,63,0,0,0,0,0,100,30.22,30.10,6,1,6,0.01
2012-9-16,84,72,66,0,0,0,0,0,100,30.15,30.05,6,1,6,0.03
2012-9-17,83,72,69,0,0,0,0,0,100,30.10,29.87,10,1,10,0.78
2012-9-18,79,73,68,0,0,0,0,0,100,29.87,29.72,15,5,15,0.48
2012-9-19,79,68,59,0,0,0,0,0,100,30.13,29.87,8,2,8,0.00
2012-9-20,82,67,58,0,0,0,0,0,100,30.18,30.06,6,1,6,0.00
2012-9-21,86,70,59,0,0,0,0,0,100,30.10,29.98,10,2,10,0.00
2012-9-22,86,73,62,0,0,0,0,0,100,30.03,29.92,13,3,13,0.00
2012-9-23,68,65,59,0,0,0,0,0,100,30.04,30.03,2,0,2,0.00
2012-9-24,74,62,48,0,0,0,0,0,100,30.24,30.16,8,2,8,0.00
2012-9-25,82,63,49,0,0,0,0,0,100,30.24,30.17,10,2,10,0.00
2012-9-26,85,68,56,0,0,0,0,0,100,30.23,30.15,10,2,10,0.00
2012-9-27,85,68,56,0,0,0,0,0,100,30.22,30.11,7,1,9,0.00
2012-9-28,88,72,61,0,0,0,0,0,100,30.13,29.98,7,1,7,0.00
2012-9-29,82,70,64,0,0,0,0,0,100,30.03,29.86,12,1,12,0.45
2012-9-30,77,67,62,0,0,0,0,0,100,29.95,29.85,6,1,6,0.00
2012-10-1,65,63,62,0,0,0,0,0,100,29.88,29.80,7,2,7,0.93
2012-10-2,83,71,63,0,0,0,0,0,100,29.99,29.76,13,3,13,0.75
2012-10-3,81,71,65,0,0,0,0,0,100,30.14,29.99,9,2,9,0.13
2012-10-4,82,70,64,0,0,0,0,0,100,30.25,30.17,7,1,7,0.00
2012-10-5,84,68,58,0,0,0,0,0,100,30.22,30.03,7,2,7,0.00
2012-10-6,86,70,58,0,0,0,0,0,100,30.04,29.89,10,1,10,0.00
2012-10-7,68,62,56,0,0,0,0,0,100,30.12,29.95,9,2,9,0.38
2012-10-8,56,51,49,0,0,0,0,0,100,30.19,30.10,10,3,10,0.00
2012-10-9,55,52,49,0,0,0,0,0,100,30.17,30.09,6,1,6,0.00
2012-10-10,77,63,46,0,0,0,0,0,100,30.11,30.02,9,2,9,0.00
2012-10-11,72,58,45,0,0,0,0,0,100,30.29,30.06,8,1,8,0.00
2012-10-12,78,61,50,0,0,0,0,0,100,30.29,30.17,5,1,5,0.00
2012-10-13,70,58,49,0,0,0,0,0,100,30.45,30.28,11,2,11,0.00
2012-10-14,72,61,50,0,0,0,0,0,100,30.32,30.04,5,1,5,0.00
2012-10-15,80,68,58,0,0,0,0,0,100,30.04,29.78,13,4,13,0.13
2012-10-16,72,57,44,0,0,0,0,0,100,29.98,29.87,7,1,7,0.00
2012-10-17,75,58,47,0,0,0,0,0,100,29.99,29.87,10,2,10,0.00
2012-10-18,77,60,47,0,0,0,0,0,100,29.91,29.78,10,2,10,0.00
2012-10-19,72,61,50,0,0,0,0,0,100,29.80,29.72,22,4,22,0.01
2012-10-20,72,57,42,0,0,0,0,0,100,29.96,29.77,9,1,9,0.00
2012-10-21,73,56,43,0,0,0,0,0,100,30.14,29.96,6,1,6,0.00
2012-10-22,78,59,46,0,0,0,0,0,100,30.22,30.13,6,1,6,0.00
2012-10-23,81,62,48,0,0,0,0,0,100,30.20,30.09,8,1,8,0.00
2012-10-24,82,62,47,0,0,0,0,0,100,30.19,30.08,6,1,6,0.00
2012-10-25,83,64,51,0,0,0,0,0,100,30.16,30.07,8,1,8,0.00
2012-10-26,81,66,58,0,0,0,0,0,100,30.10,29.95,8,2,8,0.00
2012-10-27,74,63,58,0,0,0,0,0,100,29.96,29.72,12,2,12,0.00
2012-10-28,74,58,44,0,0,0,0,0,100,29.78,29.65,9,2,9,0.00
2012-10-29,58,46,36,0,0,0,0,0,100,29.73,29.56,12,3,12,0.00
2012-10-30,54,47,44,0,0,0,0,0,100,29.68,29.48,17,4,17,0.00
2012-10-31,64,50,40,0,0,0,0,0,100,29.79,29.66,16,3,16,0.00
2012-11-1,63,51,41,0,0,0,0,0,100,29.90,29.78,13,3,13,0.00
2012-11-2,74,53,37,0,0,0,0,0,100,29.96,29.80,18,3,18,0.00
2012-11-3,73,55,38,0,0,0,0,0,100,30.09,29.96,10,2,10,0.00
2012-11-4,70,56,48,0,0,0,0,0,100,30.00,29.92,8,2,8,0.00
2012-11-5,64,52,42,0,0,0,0,0,100,30.07,29.98,6,1,6,0.00
2012-11-6,49,45,42,0,0,0,0,0,100,30.09,29.93,10,2,10,0.00
2012-11-7,54,44,36,0,0,0,0,0,100,29.97,29.85,9,1,9,0.00
2012-11-8,65,46,32,0,0,0,0,0,100,30.15,29.96,10,1,10,0.00
2012-11-9,70,50,35,0,0,0,0,0,100,30.26,30.14,10,2,10,0.00
2012-11-10,74,52,36,0,0,0,0,0,100,30.35,30.23,12,2,12,0.00
2012-11-11,73,52,37,0,0,0,0,0,100,30.45,30.35,14,2,14,0.00
2012-11-12,74,61,52,0,0,0,0,0,100,30.37,30.17,11,2,11,0.00
2012-11-13,62,51,39,0,0,0,0,0,100,30.37,30.17,9,2,9,0.00
2012-11-14,53,43,35,0,0,0,0,0,100,30.45,30.30,10,2,10,0.00
2012-11-15,77,43,36,49,15,0,61,27,24,30.32,30.21,8,2,8,0.11
2012-11-16,59,47,32,40,20,-19,57,37,1,30.36,30.24,7,1,7,0.00
2012-11-17,59,46,33,34,18,-18,55,35,1,30.44,30.35,14,3,14,0.00
2012-11-18,60,52,45,44,36,27,58,53,47,30.41,30.32,13,5,13,0.00
2012-11-19,63,54,44,45,22,-10,51,30,1,30.33,30.18,12,3,12,0.00
2012-11-20,65,49,41,44,4,-12,49,13,1,30.19,30.05,6,1,6,0.00
2012-11-21,67,50,36,44,13,-15,53,23,1,30.17,30.07,7,2,7,0.00
2012-11-22,67,49,36,41,15,-16,54,28,1,30.26,30.14,6,1,6,0.00
2012-11-23,70,51,31,46,17,-19,52,27,1,30.16,29.91,12,3,12,0.00
2012-11-24,54,45,31,33,22,10,54,41,18,30.11,29.97,13,3,13,0.00
2012-11-25,56,39,26,30,20,10,58,47,33,30.17,30.03,0,0,0,0.00
2012-11-26,67,49,32,36,27,3,56,43,28,30.19,30.06,0,0,0,0.00
2012-11-27,62,53,45,43,26,-4,53,38,1,30.21,30.06,0,0,0,0.00
2012-11-28,59,48,36,39,13,-22,53,25,1,30.36,30.19,0,0,0,0.00
2012-11-29,60,44,31,41,16,-19,53,36,2,30.45,30.33,0,0,0,0.00
2012-11-30,64,46,29,45,7,-21,51,20,1,30.37,30.25,0,0,0,0.00
2012-12-1,68,50,38,47,4,-14,48,12,1,30.39,30.29,0,0,0,0.00
2012-12-2,72,55,43,48,8,-10,47,11,1,30.36,30.24,0,0,0,0.00
2012-12-3,75,59,48,53,15,-6,48,17,1,30.31,30.22,0,0,0,0.00
2012-12-4,75,60,50,53,15,-4,48,15,1,30.31,30.18,0,0,0,0.00
2012-12-5,68,59,54,10,3,-2,11,2,1,30.19,30.11,0,0,0,0.02
2012-12-6,55,51,46,36,25,-8,52,39,5,30.27,30.17,0,0,0,0.00
2012-12-7,61,51,42,42,17,-11,50,27,1,30.19,30.00,0,0,0,0.00
2012-12-8,71,55,41,34,0,-11,26,2,1,30.06,29.96,0,0,0,0.02
2012-12-9,70,61,54,11,4,-2,1,1,1,30.10,29.99,0,0,0,0.04
2012-12-10,68,62,59,10,5,2,1,1,1,29.99,29.70,0,0,0,0.14
2012-12-11,62,51,41,5,-4,-12,1,1,1,30.14,29.73,6,1,6,0.00
2012-12-12,50,44,40,11,-7,-12,25,5,1,30.29,30.13,11,3,11,0.02
2012-12-13,54,45,35,30,19,-10,50,39,1,30.36,30.24,11,2,11,0.00
2012-12-14,59,41,26,37,4,-25,46,21,1,30.36,30.21,6,1,6,0.00
2012-12-15,62,46,35,39,5,-16,44,17,1,30.24,30.09,9,2,9,0.00
2012-12-16,57,53,48,9,-2,-6,19,2,1,30.07,29.91,8,2,8,0.47
2012-12-17,59,56,53,2,0,-2,1,1,1,29.91,29.67,11,3,11,0.15
2012-12-18,59,52,36,32,7,-15,41,13,1,29.94,29.68,14,4,14,0.00
2012-12-19,67,50,36,42,5,-16,41,12,1,30.09,29.93,9,2,9,0.00
2012-12-20,51,46,40,-4,-7,-12,1,1,1,30.09,29.60,22,3,22,1.10
2012-12-21,47,40,36,26,8,-16,48,28,1,29.93,29.67,19,8,19,0.00
2012-12-22,57,44,33,22,17,10,50,35,17,30.11,29.92,14,1,14,0.00
2012-12-23,57,42,27,32,18,-48,52,40,2,30.13,30.01,0,0,0,0.00
2012-12-24,49,46,40,30,4,-12,49,16,1,30.03,29.86,0,0,0,0.00
2012-12-25,55,49,47,-1,-5,-7,1,1,1,30.06,29.91,0,0,0,0.00
2012-12-26,50,46,36,-4,-7,-15,1,1,1,29.92,29.49,0,0,0,0.00
2012-12-27,51,40,32,19,-9,-18,30,5,1,30.06,29.74,0,0,0,0.00
2012-12-28,45,36,29,-8,-15,-21,1,1,1,30.15,29.94,0,0,0,0.00
2012-12-29,52,42,37,13,-7,-14,37,7,1,30.04,29.74,0,0,0,0.00
2012-12-30,50,38,27,27,9,-23,47,31,1,30.35,30.04,0,0,0,0.00
2012-12-31,55,41,23,31,7,-25,47,26,1,30.35,30.08,0,0,0,0.00
2013-1-1,52,50,45,30,5,-8,48,14,1,30.09,29.93,0,0,0,0.00